Regional Weather Roundup
Issued by NWS Charleston, SC

Current Version | Previous Version | Text Only | Print | Product List | Glossary Off
Versions: 1 2 3 4 5 6 7 8 9 10 11 12 13 14 15 16 17 18 19 20 21 22 23 24 25 26 27 28 29 30 31 32 33 34 35 36 37 38 39 40 41 42 43 44 45 46 47 48 49 50
000 ASUS42 KCHS 030911 RWRCHS REGIONAL WEATHER ROUNDUP NATIONAL WEATHER SERVICE CHARLESTON SC 400 AM EST TUE MAR 03 2015 NOTE: "FAIR" INDICATES FEW OR NO CLOUDS BELOW 12,000 FEET WITH NO SIGNIFICANT WEATHER AND/OR OBSTRUCTIONS TO VISIBILITY. NOT ALL STATIONS ARE QUALITY CONTROLLED BY THE NATIONAL WEATHER SERVICE. USE DATA WITH CAUTION...ESPECIALLY DEWPOINT OBSERVATIONS. SCZ027-030-031-034>040-042>050-031000- ...SOUTHEAST SOUTH CAROLINA... CITY SKY/WX TMP DP RH WIND PRES REMARKS N CHARLESTON CLOUDY 57 53 86 E6 30.24F WATERFRONT PRK N/A 54 N/A N/A NE14 N/A MOUNT PLEASANT CLOUDY 55 52 88 E3 30.24S PINOPOLIS NOT AVBL MONCKS CORNER CLOUDY 55 50 82 E8 30.24F SUMMERVILLE CLOUDY 55 54 94 NE3 30.25S BEAUFORT MCAS CLOUDY 55 53 93 NE5 30.22R BEAUFORT ARPT PTSUNNY 54 54 100 CALM 30.22R HILTON HEAD IS CLOUDY 54 54 100 NE5 30.23S FOG WALTERBORO CLOUDY 55 54 94 E6 30.23F ALLENDALE CLOUDY 57 55 94 E5 30.21S ...SOUTHERN MIDLANDS AND PEE DEE... CITY SKY/WX TMP DP RH WIND PRES REMARKS GEORGETOWN NOT AVBL KINGSTREE NOT AVBL ORANGEBURG CLOUDY 56 50 80 E5 30.23F BARNWELL CLOUDY 57 54 88 E9 30.22S AIKEN CLOUDY 55 54 94 E7 30.25R MANNING CLOUDY 54 45 71 E6 30.25S COLUMBIA CLOUDY 57 51 80 E8 30.23S SUMTER CLOUDY 53 50 89 E8 30.24R FLORENCE CLOUDY 47 42 83 E15 30.29S MYRTLE BEACH CLOUDY 48 39 71 NE14G20 30.30F N MYRTLE BEACH CLOUDY 47 39 74 NE9 30.29S $$ GAZ063-065-086>088-099>101-113>116-118-119-134>141-150-031000- ...SOUTHEAST GEORGIA... CITY SKY/WX TMP DP RH WIND PRES REMARKS SAVANNAH ARPT FOG 55 54 96 SE5 30.22R VSB 1/2 HUNTER AAF MOCLDY 57 57 100 NE3 30.20R FORT STEWART CLOUDY 57 57 100 CALM 30.20R STATESBORO RAIN 59 59 100 E3 30.20S SYLVANIA CLOUDY 57 57 100 SE5 30.22S FOG CLAXTON CLOUDY 55 55 100 S5 30.21R ...CSRA...CENTRAL AND FAR SOUTHEAST GEORGIA... CITY SKY/WX TMP DP RH WIND PRES REMARKS THOMSON CLOUDY 58 58 99 CALM 30.24S AUGUSTA-BUSH CLOUDY 59 55 87 E3 30.20S AUGUSTA-DANIEL CLOUDY 61 54 77 NE6 30.21R SWAINSBORO NOT AVBL VIDALIA CLOUDY 61 61 100 E5 30.19S EASTMAN CLOUDY 60 60 100 CALM 30.22R HAZLEHURST CLOUDY 60 60 100 CALM 30.19S FOG ALMA FOG 56 55 97 CALM 30.20S VSB 1/2 WAYCROSS FOG 59 59 100 CALM 30.20S VSB 1/2 JESUP PTSUNNY 61 59 94 W3 30.21R FOG BAXLEY CLOUDY 59 57 94 CALM 30.19S FOG BRUNSWICK CLOUDY 59 57 94 CALM 30.21R SAINT SIMONS CLOUDY 59 57 93 SW5 30.19F $$ SCZ027-028-034-036>038-045-046-048>050-GAZ119-141-031000- ...LAKE AND SUPPLEMENTAL COASTAL OBSERVATIONS... STATION/POSITION TIME TEMP WIND PRES WAVE SWELL AIR SEA DIR/SP/G HT/PER HT/PER/DIR (UTC) (F) (DEG/KT/KT) (MB) (FT/S) (FT/S/D) UPR LAKE MARION NOT AVBL WINYAH BAY NOT AVBL LAKE MURRAY 0800 55 70/ 3/ 10 1023.4F ACE BASIN NERRS NOT AVBL FORT PULASKI 0800 52 90/ 6/ 6 1023.2 SAPELO ISLAND 0800 57 190/ 1 1022.0F $$ ANZ835-935-AMZ111-154-330-350-352-354-370-450-454-472-031000- ...C-MAN AND BUOY OBSERVATIONS... STATION/POSITION TIME TEMP WIND PRES WAVE SWELL AIR SEA DIR/SP/G HT/PER HT/PER/DIR (UTC) (F) (DEG/KT/KT) (MB) (FT/S) (FT/S/D) BUOY 41004 0850 66 68 80/ 14/ 16 1022.6S 4/ 9 3/ 9 BUOY 41008 0750 54 52 240/ 4/ 4 1022.9 2/ 9 2/100/ 9 FOLLY BEACH CMAN 0900 51 50/ 15/ 16 1024.1S CAPERS NEARSHORE NOT AVBL FRIPP NEARSHORE 0800 50 40/ 6/ 8 1022.3F STATION/POSITION TIME TEMP WIND PRES WAVE SWELL AIR SEA DIR/SP/G HT/PER HT/PER/DIR (UTC) (F) (DEG/KT/KT) (MB) (FT/S) (FT/S/D) 5E ST. MARYS GA 0821 53 N/A 3/ 8 FRYING PAN BUOY 0850 58 61 60/ 19/ 23 1024.6F 6/ 6 BUOY 41025 NOT AVBL CAPE LOOKOUT NC 0800 45 30/ 17/ 22 1027.3F BUOY 41002 0850 66 73 50/ 17/ 21 1023.3F 6/ 8 2/ 30/16 BUOY 41010 0820 72 75 30/ 10/ 10 1022.3F ST AUGUSTINE FL 0900 61 160/ 2/ 2 1022.9F $$

USA.gov is the U.S. government's official web portal to all federal, state and local government web resources and services.